Location: La Silve
(44.2414°N, 5.8889°E)
Time: 06:28:15
(UTC+00:00)

Cosmos 1782 - Pass Details

Date: 01 December 2020
Orbit: 537 x 551 km, 82.5° (Epoch: 27 January)

Event Time Altitude Azimuth Distance (km) Brightness Sun altitude
Rises 17:54:10 0° 207° (SSW) 2,683 6.9 -20.1°
Reaches altitude 10° 17:56:26 10° 216° (SW) 1,798 6.1 -20.5°
Maximum altitude 18:00:05 36° 284° (WNW) 877 4.3 -21.1°
Drops below altitude 10° 18:03:48 10° 352° (N) 1,820 5.4 -21.8°
Enters shadow 18:04:46 - 357° (N) 2,195 5.8 -21.9°
